Weather History for Berlin, NH

Change the Weather History Date:

Tuesday, October 15, 2013

  Actual Average Record
Temperature  
Mean Temperature 56 °F -  
Max Temperature 66 °F 53 °F 66 °F (2000)
Min Temperature 46 °F 28 °F 17 °F (2002)
Degree Days  
Heating Degree Days 9    
Growing Degree Days 6 (Base 50)    
Moisture  
Dew Point 49 °F    
Average Humidity 92    
Maximum Humidity 100    
Minimum Humidity 54    
Precipitation  
Precipitation 0.00 in - - ()
Sea Level Pressure  
Sea Level Pressure 30.26 in    
Wind  
Wind Speed 1 mph (SSE)    
Max Wind Speed 6 mph    
Max Gust Speed -    
Visibility 4 miles    
Events Fog    
Averages and records for this station are not official NWS values.
T = Trace of Precipitation, MM = Missing Value Source: NWS Daily Summary

Daily Weather History Graph

Daily Weather History Graph

Search for Another Location

Airport:

Trip Planner

Search our weather history database for the weather conditions in past years. The results will help you decide how hot, cold, wet, or windy it might be!

Date:

Astronomy

Oct. 15, 2013 Rise Set
Actual Time 7:00 AM EDT 5:59 PM EDT
Civil Twilight 6:30 AM EDT 6:29 PM EDT
Nautical Twilight 5:57 AM EDT 7:02 PM EDT
Astronomical Twilight 5:23 AM EDT 7:36 PM EDT
Moon 4:09 PM EDT (10/15) 3:11 AM EDT (10/15)
Length of Visible Light 11h 58m
Length of Day
10h 59m
Waxing Gibbous, 87% of the Moon is Illuminated
Oct 15
Waxing Gibbous
Oct 18
Full
Oct 26
Last Quarter
Nov 3
New
Nov 10
First Quarter

Hourly Weather History & Observations

Time (EDT) Temp. Dew Point Humidity Pressure Visibility Wind Dir Wind Speed Gust Speed Precip Events Conditions
12:03 AM 51.8 °F 51.8 °F 100% 30.26 in 4.0 mi Calm Calm - N/A   Mostly Cloudy
12:05 AM 51.8 °F 51.8 °F 100% 30.26 in 1.8 mi Calm Calm - N/A   Mostly Cloudy
12:08 AM 51.8 °F 51.8 °F 100% 30.26 in 0.8 mi Calm Calm - N/A   Mostly Cloudy
12:44 AM 50.0 °F 48.2 °F 94% 30.27 in 0.5 mi Calm Calm - N/A Fog Fog
12:48 AM 48.2 °F 48.2 °F 100% 30.27 in 0.2 mi Calm Calm - N/A Fog Fog
12:52 AM 48.0 °F 48.0 °F 100% 30.29 in 0.2 mi South 3.5 mph - N/A Fog Fog
1:11 AM 50.0 °F 48.2 °F 94% 30.28 in 0.8 mi Calm Calm - N/A   Mist
1:52 AM 50.0 °F 50.0 °F 100% 30.30 in 0.5 mi Calm Calm - N/A Fog Fog
2:35 AM 50.0 °F 50.0 °F 100% 30.28 in 1.2 mi Calm Calm - N/A   Overcast
2:43 AM 50.0 °F 50.0 °F 100% 30.27 in 2.0 mi Calm Calm - N/A   Overcast
2:52 AM 50.0 °F 50.0 °F 100% 30.29 in 4.0 mi Calm Calm - N/A   Overcast
3:52 AM 50.0 °F 50.0 °F 100% 30.29 in 4.0 mi Calm Calm - N/A   Overcast
3:55 AM 50.0 °F 48.2 °F 94% 30.27 in 1.8 mi Calm Calm - N/A   Overcast
3:59 AM 48.2 °F 48.2 °F 100% 30.27 in 0.8 mi Calm Calm - N/A   Overcast
4:14 AM 48.2 °F 48.2 °F 100% 30.27 in 0.2 mi Calm Calm - N/A Fog Fog
4:34 AM 46.4 °F 46.4 °F 100% 30.28 in 0.2 mi Calm Calm - N/A Fog Fog
4:52 AM 48.9 °F 48.0 °F 97% 30.30 in 0.2 mi Calm Calm - N/A Fog Fog
5:00 AM 48.2 °F 48.2 °F 100% 30.28 in 1.0 mi Calm Calm - N/A   Overcast
5:07 AM 48.2 °F 48.2 °F 100% 30.28 in 2.0 mi Calm Calm - N/A   Overcast
5:14 AM 48.2 °F 48.2 °F 100% 30.28 in 1.5 mi Calm Calm - N/A   Overcast
5:17 AM 48.2 °F 48.2 °F 100% 30.28 in 1.0 mi Calm Calm - N/A   Overcast
5:25 AM 46.4 °F 46.4 °F 100% 30.28 in 0.5 mi Calm Calm - N/A Fog Fog
5:34 AM 46.4 °F 46.4 °F 100% 30.28 in 0.2 mi Calm Calm - N/A Fog Fog
5:52 AM 48.9 °F 48.0 °F 97% 30.30 in 0.5 mi Calm Calm - N/A Fog Fog
6:17 AM 48.2 °F 48.2 °F 100% 30.28 in 1.5 mi Calm Calm - N/A   Overcast
6:34 AM 48.2 °F 48.2 °F 100% 30.28 in 1.2 mi Calm Calm - N/A   Overcast
6:38 AM 48.2 °F 48.2 °F 100% 30.28 in 2.0 mi Calm Calm - N/A   Overcast
6:46 AM 48.2 °F 46.4 °F 93% 30.28 in 1.2 mi Calm Calm - N/A   Overcast
6:52 AM 48.0 °F 46.9 °F 96% 30.30 in 0.8 mi ESE 3.5 mph - N/A   Mist
7:04 AM 48.2 °F 46.4 °F 93% 30.28 in 1.5 mi Calm Calm - N/A   Overcast
7:13 AM 48.2 °F 46.4 °F 93% 30.29 in 0.8 mi Calm Calm - N/A   Mist
7:25 AM 48.2 °F 48.2 °F 100% 30.29 in 0.2 mi Calm Calm - N/A Fog Fog
7:52 AM 48.9 °F 48.0 °F 97% 30.32 in 0.2 mi Calm Calm - N/A Fog Fog
8:52 AM 48.9 °F 48.9 °F 100% 30.32 in 0.2 mi Calm Calm - N/A Fog Fog
9:52 AM 48.9 °F 48.9 °F 100% 30.31 in 0.5 mi NW 3.5 mph - N/A Fog Fog
10:33 AM 51.8 °F 50.0 °F 94% 30.29 in 1.0 mi NNW 3.5 mph - N/A   Overcast
10:46 AM 51.8 °F 51.8 °F 100% 30.29 in 2.0 mi Calm Calm - N/A   Overcast
10:52 AM 52.0 °F 51.1 °F 97% 30.30 in 4.0 mi North 5.8 mph - N/A   Overcast
11:52 AM 57.9 °F 52.0 °F 81% 30.27 in 10.0 mi Variable 3.5 mph - N/A   Mostly Cloudy
12:52 PM 62.1 °F 51.1 °F 67% 30.25 in 10.0 mi Calm Calm - N/A   Clear
1:52 PM 66.0 °F 50.0 °F 56% 30.22 in 10.0 mi Calm Calm - N/A   Clear
2:52 PM 66.0 °F 48.9 °F 54% 30.20 in 10.0 mi SSE 4.6 mph - N/A   Overcast
3:52 PM 64.9 °F 50.0 °F 58% 30.18 in 10.0 mi South 5.8 mph - N/A   Overcast
4:52 PM 62.1 °F 51.1 °F 67% 30.19 in 10.0 mi SSE 5.8 mph - N/A   Overcast
5:52 PM 60.1 °F 50.0 °F 69% 30.19 in 10.0 mi SSE 3.5 mph - N/A   Overcast
6:52 PM 59.0 °F 51.1 °F 75% 30.20 in 10.0 mi SSE 3.5 mph - N/A   Overcast
7:52 PM 57.9 °F 51.1 °F 78% 30.20 in 10.0 mi SSE 4.6 mph - N/A   Overcast
8:52 PM 57.0 °F 51.1 °F 81% 30.21 in 10.0 mi Calm Calm - N/A   Overcast
9:52 PM 57.0 °F 51.1 °F 81% 30.21 in 10.0 mi Calm Calm - N/A   Overcast
10:52 PM 48.9 °F 48.0 °F 97% 30.20 in 10.0 mi Calm Calm - N/A   Partly Cloudy
11:52 PM 48.9 °F 46.9 °F 93% 30.18 in 10.0 mi Calm Calm - N/A   Clear